FW4376 Weather Reports


time (UTC)temp
F
wind
direction
speed
knots
gust
knots
rain 1hr
in
rain 24hr
in
rain mn
in
humidity
%
barometer
mb
20260505173025 81 238 5.2 12.2 0.00 0.00 0.00 73 1005.1
20260505171522 81 53 3.5 11.3 0.00 0.00 0.00 73 1005.5
20260505170022 79 300 5.2 19.1 0.00 0.00 0.00 74 1005.4
20260505164519 80 231 4.3 13.0 0.00 0.00 0.00 74 1005.3
20260505163016 79 117 4.3 13.0 0.00 0.00 0.00 75 1005.2
20260505161515 78 231 6.1 13.0 0.00 0.00 0.00 76 1005.0
20260505153006 76 276 3.5 11.3 0.00 0.00 0.00 80 1005.3
20260505151509 75 240 4.3 13.9 0.00 0.00 0.00 80 1005.3
20260505124556 71 141 1.7 8.7 0.00 0.00 0.00 86 1004.8
20260505123046 71 129 3.5 12.2 0.00 0.00 0.00 86 1004.6
20260505121547 71 80 2.6 9.6 0.00 0.00 0.00 86 1004.6
20260505120049 70 302 4.3 9.6 0.00 0.00 0.00 86 1004.5
20260505114545 70 104 2.6 8.7 0.00 0.00 0.00 86 1004.3
20260505113040 70 265 2.6 10.4 0.00 0.00 0.00 86 1004.0
20260505111539 70 233 2.6 8.7 0.00 0.00 0.00 86 1004.2
20260505101542 70 227 3.5 8.7 0.00 0.00 0.00 86 1004.2
20260505100033 70 110 2.6 8.7 0.00 0.00 0.00 86 1004.5
20260505094532 70 225 2.6 7.8 0.00 0.00 0.00 86 1004.6
20260505093031 70 137 3.5 11.3 0.00 0.00 0.00 85 1004.8
20260505091530 70 259 3.5 12.2 0.00 0.00 0.00 86 1004.6
20260505090028 70 257 4.3 11.3 0.00 0.00 0.00 86 1004.6
20260505084535 70 353 2.6 8.7 0.00 0.00 0.00 85 1004.5
20260505083027 70 255 4.3 12.2 0.00 0.00 0.00 85 1004.6
20260505081523 70 231 2.6 9.6 0.00 0.00 0.00 85 1004.6
20260505080021 70 154 3.5 8.7 0.00 0.00 0.00 85 1004.8
20260505074518 70 230 3.5 11.3 0.00 0.00 0.00 85 1005.0
20260505073025 70 200 2.6 11.3 0.00 0.00 0.00 84 1005.4
20260505071514 71 110 2.6 11.3 0.00 0.00 0.00 84 1005.6
20260505070017 71 84 2.6 12.2 0.00 0.00 0.00 83 1005.8
20260505064510 71 242 3.5 11.3 0.00 0.00 0.00 83 1005.6
20260505063011 71 178 3.5 8.7 0.00 0.00 0.00 82 1005.8
20260505061507 71 207 3.5 13.0 0.00 0.00 0.00 81 1005.9
20260505060007 71 127 1.7 11.3 0.00 0.00 0.00 81 1006.1
20260505054503 71 264 4.3 12.2 0.00 0.00 0.00 81 1006.1
20260505053002 72 142 2.6 9.6 0.00 0.00 0.00 80 1006.2
20260505051600 72 57 1.7 9.6 0.00 0.00 0.00 80 1006.4
20260505041559 72 158 1.7 5.2 0.00 0.00 0.00 78 1006.7
20260505040056 72 96 1.7 5.2 0.00 0.00 0.00 77 1006.6
20260505034553 72 154 1.7 4.3 0.00 0.00 0.00 77 1006.7
20260505033053 72 222 2.6 7.0 0.00 0.00 0.00 77 1006.9
20260505031603 72 289 1.7 5.2 0.00 0.00 0.00 76 1006.8
20260505030052 72 106 1.7 6.1 0.00 0.00 0.00 76 1006.9
20260505024559 72 140 1.7 4.3 0.00 0.00 0.00 75 1006.7
20260505023050 73 185 1.7 4.3 0.00 0.00 0.00 75 1006.6
20260505021553 73 120 0.9 7.0 0.00 0.00 0.00 73 1006.6
20260505020049 74 143 1.7 4.3 0.00 0.00 0.00 72 1006.5
20260505014603 75 156 1.7 8.7 0.00 0.00 0.00 71 1006.6
20260505013050 75 91 1.7 7.0 0.00 0.00 0.00 70 1006.4
20260505011556 76 248 1.7 5.2 0.00 0.00 0.00 69 1006.5
20260505010045 76 200 2.6 7.0 0.00 0.00 0.00 68 1006.5
20260505004545 77 262 2.6 8.7 0.00 0.00 0.00 66 1006.6
20260505003045 77 238 2.6 7.8 0.00 0.00 0.00 66 1006.6
20260505001544 78 281 1.7 9.6 0.00 0.00 0.00 65 1006.6
20260505000054 79 90 1.7 14.8 0.00 0.00 0.00 64 1006.7
20260504234547 79 139 3.5 13.0 0.00 0.00 0.00 63 1006.8
20260504233101 79 249 5.2 11.3 0.00 0.00 0.00 62 1006.7
20260504231543 80 198 1.7 8.7 0.00 0.00 0.00 61 1006.9
20260504230039 81 243 5.2 13.0 0.00 0.00 0.00 59 1007.1
20260504224540 81 269 4.3 10.4 0.00 0.00 0.00 59 1007.2
20260504223053 81 175 4.3 16.5 0.00 0.00 0.00 59 1007.1
20260504221536 82 232 4.3 11.3 0.00 0.00 0.00 58 1007.3
20260504220032 82 326 3.5 11.3 0.00 0.00 0.00 57 1007.4
20260504214531 81 71 3.5 11.3 0.00 0.00 0.00 57 1007.7
20260504213040 82 245 3.5 13.0 0.00 0.00 0.00 58 1008.0
20260504211532 81 127 5.2 14.8 0.00 0.00 0.00 55 1008.4
20260504210024 81 195 3.5 12.2 0.00 0.00 0.00 55 1008.6
20260504204535 81 144 4.3 14.8 0.00 0.00 0.00 54 1008.9
20260504203024 82 301 3.5 11.3 0.00 0.00 0.00 54 1009.1
20260504201518 81 236 6.1 14.8 0.00 0.00 0.00 53 1009.5
20260504200015 81 205 4.3 10.4 0.00 0.00 0.00 54 1009.8
20260504194513 81 252 5.2 13.0 0.00 0.00 0.00 53 1010.1
20260504193010 80 239 3.5 12.2 0.00 0.00 0.00 54 1010.3
20260504191509 81 228 3.5 10.4 0.00 0.00 0.00 52 1010.6
20260504190006 80 112 6.1 16.5 0.00 0.00 0.00 50 1010.5
20260504184504 79 274 2.6 18.2 0.00 0.00 0.00 51 1010.7
20260504183002 79 244 5.2 14.8 0.00 0.00 0.00 50 1011.1
20260504181603 78 263 3.5 9.6 0.00 0.00 0.00 51 1011.1
20260504180058 79 121 3.5 12.2 0.00 0.00 0.00 51 1011.2
20260504174604 78 209 2.6 13.9 0.00 0.00 0.00 53 1011.5